Flag for Switzerland Weather past 2 weeks in Martigny, Valais, Switzerland

Now
54 °F

Passing clouds.


Feels Like: 54 °F
Forecast: 43 / 57 °F
Wind: 2 mph from Southeast

Location: Sion

Current Time: Apr 27, 2015 at 3:06:44 AM

Latest Report: Apr 27, 2015 at 2:00 AM


Visibility: 16 mi

Pressure: 29.67 "Hg

Humidity: 70%

Dew point: 44 °F

Location of MartignyLocation

Historic Weather in Martigny — Graph

°F

Martigny temperature yesterday

Maximum temperature yesterday: 72 °F (at 4:00 PM)
Minimum temperature yesterday: 49 °F (at 7:00 AM)
Average temperature yesterday: 59 °F

Past Weeks' High & Low Weather Summary

 TemperatureHumidityPressure
High78 °F (Apr 22, 5:00 PM)95% (Apr 26, 7:00 AM)30.51 "Hg (Apr 26, 7:00 AM)
Low42 °F (Apr 12, 7:00 AM)12% (Apr 15, 3:00 PM)29.63 "Hg (Apr 26, 5:00 PM)
Average58 °F55%30.09 "Hg
* Reported Apr 12 1:00 AM — Apr 27 1:00 AM, Martigny, Weather by CustomWeather, © 2015

Note: Actual official high and low records may vary slightly from our data, if they occured in-between our weather recording intervals... More about our weather records

Advertising

Martigny weather history for previous 24 hours

 ConditionsComfort  
Time TempWeatherWind HumidityBarometerVisibility
1:00 AM
Mon, Apr 27
57 °FCool.2 mph61%29.67 "HgN/A
12:00 AM56 °FCool.2 mph68%29.68 "HgN/A
11:00 PM
Sun, Apr 26
58 °FCool.1 mph62%29.69 "HgN/A
10:00 PM59 °FRefreshingly cool.1 mph59%29.69 "HgN/A
9:00 PM63 °FMild.3 mph45%29.67 "HgN/A
8:00 PM62 °FPartly sunny.1 mph63%29.66 "Hg12 mi
7:00 PM63 °FMild.3 mph58%29.65 "HgN/A
6:00 PM65 °FMild.15 mph53%29.64 "HgN/A
5:00 PM71 °FPartly sunny.5 mph34%29.63 "Hg12 mi
4:00 PM72 °FMild.6 mph35%29.66 "HgN/A
3:00 PM69 °FMild.8 mph39%29.69 "HgN/A
2:00 PM69 °FScattered clouds.3 mph41%29.71 "Hg12 mi
1:00 PM65 °FMild.2 mph47%29.77 "HgN/A
12:00 PM62 °FRefreshingly cool.1 mph59%29.82 "HgN/A
11:00 AM59 °FPartly sunny.3 mph62%29.85 "Hg12 mi
10:00 AM57 °FCool.2 mph74%29.88 "HgN/A
9:00 AM54 °FCool.5 mph84%29.90 "HgN/A
8:00 AM52 °FScattered clouds.3 mph90%29.93 "Hg12 mi
7:00 AM49 °FCool.2 mph95%29.94 "HgN/A
6:00 AM50 °FCool.3 mph91%29.93 "HgN/A
5:00 AM51 °FOvercast.3 mph93%29.95 "Hg9 mi
4:00 AM52 °FCool.3 mph94%29.98 "HgN/A
3:00 AM52 °FCool.2 mph91%29.97 "HgN/A
Weather by CustomWeather, © 2015

See weather overviewHow to use our weather pages